ESCFESGG

Guest
Details From ESCF - Linkoping Malmen
To ESGG - Goteborg Landvetter
Flight Number -
Tags decoded
Created
Modified
Stats Distance 118 nm / 219 km
Max Altitude 0 ft / 0 m
Waypoints 6
Social Downloads 1
Likes 0
Share VATSIM

Download

Looking for another format? Having issues loading an existing format? Contact us
Advertisement - Login to hide

Notes

Requested: ESCF NEGAS GG412 DEGAV GG401 ESGG

Route

ESCF NEGAS GG412 DEGAV GG401 ESGG

ID Type Via Altitude Latitude Longitude Leg Dist Tot Dist Heading (true) Name
O ESCF APT - 0 ft / 0 m 58.39940˚ 15.52671˚ - 0 nm - Linkoping Malmen
NEGAS FIX - 0 ft / 0 m 58.03778˚ 14.89306˚ 29 nm 29 nm 223° / 222° -
GG412 FIX - 0 ft / 0 m 57.81272˚ 12.59783˚ 74 nm 103 nm 261° / 259° -
DEGAV FIX - 0 ft / 0 m 57.72806˚ 12.34022˚ 9 nm 113 nm 238° / 238° -
GG401 FIX - 0 ft / 0 m 57.69080˚ 12.30531˚ 2 nm 116 nm 207° / 207° -
O ESGG APT - 0 ft / 0 m 57.66284˚ 12.27982˚ 1 nm 118 nm 206° / 206° Goteborg Landvetter

Altitude Profile

Advertisement - Login to hide

ESCF

Details ICAO ESCF
Name Linkoping Malmen
Region Sweden
Timezone Europe/Stockholm (UTC+2.0)
Stats Elevation 308 ft / 94 m (AMSL)
Location 58.399398° 15.526710°
Runways 2
Magnetic Variation 5.066° E

METAR

ESCF 271950Z AUTO 11004KT 9999 NCD 15/01 Q1030

Decode

TAF

Not found

Departure Runways

ID Width Length Bearing (true) Bearing (mag) Surface Threshold Offset Overrun Length
01 115 ft / 35 m 7,253 ft / 2,211 m 18.29° 13.22° Asphalt 0 ft / 0 m 1,070 ft / 326 m
08 121 ft / 37 m 6,115 ft / 1,864 m 83.21° 78.14° Asphalt 0 ft / 0 m 0 ft / 0 m
19 115 ft / 35 m 7,253 ft / 2,211 m 198.30° 193.23° Asphalt 0 ft / 0 m 392 ft / 119 m
26 121 ft / 37 m 6,115 ft / 1,864 m 263.24° 258.17° Asphalt 0 ft / 0 m 0 ft / 0 m

ESGG

Details ICAO ESGG (GOT)
Name Goteborg Landvetter
Region Sweden
Timezone Europe/Stockholm (UTC+2.0)
Stats Elevation 506 ft / 154 m (AMSL)
Location 57.662836° 12.279819°
Runways 1
Magnetic Variation 3.786° E

METAR

ESGG 271950Z 09008KT CAVOK 20/M01 Q1027

Decode

TAF

TAF TAF ESGG 271730Z 2718/2818 14003KT CAVOK PROB40 2810/2818 SHRA BKN055CB

Decode

Destination Runways

ID Width Length Bearing (true) Bearing (mag) Surface Threshold Offset Overrun Length
03 148 ft / 45 m 10,804 ft / 3,293 m 25.94° 22.15° Asphalt 0 ft / 0 m 207 ft / 63 m
21 148 ft / 45 m 10,804 ft / 3,293 m 205.96° 202.17° Asphalt 0 ft / 0 m 207 ft / 63 m

Approach Navaids

Runway Type Ident Frequency Range Bearing (true) Bearing (mag) Slope Elevation
03 Localiser SSG 110.30 MHz 18 nm / 33 km 25.98° 22.19° - 506 ft / 154 m (AMSL)
03 Glidescope SSG 110.30 MHz 10 nm / 19 km 25.95° 22.17° 3.00° 506 ft / 154 m (AMSL)
21 Localiser NGG 108.50 MHz 18 nm / 33 km 205.92° 202.14° - 506 ft / 154 m (AMSL)
21 Glidescope NGG 108.50 MHz 10 nm / 19 km 205.95° 202.17° 3.00° 506 ft / 154 m (AMSL)

Popular Alternatives